ETD602 OMAA-FAOR

Flight info

Callsign ETD602
Flight time 6h 59m
Altitude 37000
Route KANIP N318 LAKLU/N0505F360 Q204 HAI B400 VEDET UL437 AVEDA/N0497F380 UL437 DV UM310 OKBIM/N0489F400 UM310 VBR UM307 EPSEK UZ33 NESAG UZ7 OKPIT OKPIT4B
Aircraft B789/H-SDE1E2E3FGHIJ2J3J4J5M1RWXY/LB1D1

Departure

Time 2026-05-05 12:14
Airport Zayed International Airport (OMAA)

Arrival

Time 2026-05-05 19:13
Airport O.R. Tambo International Airport (FAOR)
Time Latitude Longitude Altitude Speed Heading
2026-05-05 11:34 24.42752 54.64784 93 ft 0 kts 300°
2026-05-05 11:57 24.42752 54.64785 95 ft 0 kts 300°
2026-05-05 12:01 24.42750 54.64788 94 ft 2 kts 300°
2026-05-05 12:01 24.42741 54.64807 96 ft 3 kts 300°
2026-05-05 12:02 24.42730 54.64826 94 ft 3 kts 301°
2026-05-05 12:02 24.42720 54.64845 95 ft 3 kts 304°
2026-05-05 12:02 24.42708 54.64862 93 ft 3 kts 313°
2026-05-05 12:02 24.42694 54.64876 96 ft 3 kts 332°
2026-05-05 12:03 24.42682 54.64881 93 ft 3 kts
2026-05-05 12:03 24.42676 54.64880 93 ft 0 kts 38°
2026-05-05 12:08 24.42678 54.64882 95 ft 1 kts 37°
2026-05-05 12:08 24.42684 54.64886 95 ft 1 kts 37°
2026-05-05 12:08 24.42697 54.64897 95 ft 3 kts 36°
2026-05-05 12:08 24.42720 54.64915 96 ft 5 kts 36°
2026-05-05 12:09 24.42751 54.64940 97 ft 6 kts 37°
2026-05-05 12:09 24.42789 54.64973 97 ft 8 kts 38°
2026-05-05 12:09 24.42844 54.65020 95 ft 12 kts 37°
2026-05-05 12:09 24.42912 54.65080 98 ft 13 kts 45°
2026-05-05 12:10 24.42954 54.65156 98 ft 9 kts 82°
2026-05-05 12:10 24.42941 54.65221 99 ft 9 kts 115°
2026-05-05 12:10 24.42906 54.65279 98 ft 11 kts 126°
2026-05-05 12:10 24.42855 54.65354 98 ft 13 kts 130°
2026-05-05 12:11 24.42785 54.65443 100 ft 17 kts 131°
2026-05-05 12:11 24.42712 54.65550 98 ft 19 kts 126°
2026-05-05 12:11 24.42625 54.65675 98 ft 22 kts 128°
2026-05-05 12:11 24.42525 54.65814 98 ft 25 kts 128°
2026-05-05 12:12 24.42419 54.65965 99 ft 25 kts 127°
2026-05-05 12:12 24.42307 54.66127 99 ft 28 kts 129°
2026-05-05 12:12 24.42182 54.66300 100 ft 30 kts 127°
2026-05-05 12:12 24.42052 54.66492 100 ft 30 kts 115°
2026-05-05 12:13 24.42116 54.66662 100 ft 24 kts 30°
2026-05-05 12:13 24.42226 54.66631 99 ft 15 kts 309°
2026-05-05 12:13 24.42358 54.66446 99 ft 65 kts 308°
2026-05-05 12:13 24.42804 54.65825 99 ft 140 kts 308°
2026-05-05 12:14 24.43535 54.64794 211 ft 194 kts 308°
2026-05-05 12:14 24.44317 54.63717 1425 ft 166 kts 311°
2026-05-05 12:14 24.45066 54.62739 2193 ft 173 kts 313°
2026-05-05 12:14 24.45901 54.61726 2690 ft 195 kts 313°
2026-05-05 12:15 24.46742 54.60381 3112 ft 229 kts 304°
2026-05-05 12:15 24.47689 54.58913 4127 ft 233 kts 309°
2026-05-05 12:15 24.48685 54.57519 5302 ft 235 kts 310°
2026-05-05 12:15 24.49701 54.56106 6414 ft 238 kts 310°
2026-05-05 12:16 24.50732 54.54653 7448 ft 244 kts 309°
2026-05-05 12:16 24.51781 54.53164 8488 ft 251 kts 310°
2026-05-05 12:16 24.52893 54.51599 8986 ft 266 kts 309°
2026-05-05 12:16 24.54034 54.49985 8990 ft 264 kts 310°
2026-05-05 12:17 24.55143 54.48413 8988 ft 258 kts 309°
2026-05-05 12:17 24.56246 54.46852 8990 ft 256 kts 310°
2026-05-05 12:17 24.57340 54.45308 8987 ft 257 kts 309°
2026-05-05 12:17 24.58062 54.44285 8995 ft 256 kts 310°
2026-05-05 12:18 24.59226 54.42828 8979 ft 253 kts 328°
2026-05-05 12:18 24.60809 54.42077 9000 ft 252 kts 349°
2026-05-05 12:18 24.62548 54.42166 9028 ft 251 kts 15°
2026-05-05 12:18 24.64086 54.43032 9035 ft 251 kts 36°
2026-05-05 12:19 24.65269 54.44452 9022 ft 255 kts 65°
2026-05-05 12:19 24.65755 54.46356 9036 ft 273 kts 88°
2026-05-05 12:19 24.65474 54.48517 9135 ft 297 kts 97°
2026-05-05 12:19 24.65187 54.50741 10290 ft 294 kts 96°
2026-05-05 12:20 24.64863 54.53054 10894 ft 319 kts 98°
2026-05-05 12:20 24.64490 54.55515 11429 ft 344 kts 98°
2026-05-05 12:20 24.64084 54.58250 11966 ft 370 kts 98°
2026-05-05 12:20 24.63671 54.61117 12587 ft 390 kts 98°
2026-05-05 12:21 24.63155 54.64067 13706 ft 395 kts 104°
2026-05-05 12:21 24.62431 54.67007 14615 ft 403 kts 105°
2026-05-05 12:21 24.61265 54.69817 15583 ft 410 kts 124°
2026-05-05 12:21 24.59366 54.72173 16568 ft 416 kts 141°
2026-05-05 12:22 24.56902 54.73885 17535 ft 422 kts 157°
2026-05-05 12:22 24.54094 54.74806 18420 ft 426 kts 173°
2026-05-05 12:22 24.51126 54.74885 19291 ft 429 kts 188°
2026-05-05 12:22 24.48252 54.74136 20145 ft 431 kts 203°
2026-05-05 12:23 24.45563 54.72583 21018 ft 434 kts 216°
2026-05-05 12:23 24.43178 54.70595 21874 ft 438 kts 221°
2026-05-05 12:23 24.40799 54.68464 22688 ft 444 kts 220°
2026-05-05 12:23 24.38300 54.66367 23479 ft 451 kts 217°
2026-05-05 12:24 24.35633 54.64538 24211 ft 456 kts 210°
2026-05-05 12:24 24.32784 54.63032 24951 ft 461 kts 206°
2026-05-05 12:24 24.29785 54.61610 25686 ft 464 kts 206°
2026-05-05 12:24 24.26870 54.60106 26422 ft 467 kts 210°
2026-05-05 12:25 24.24032 54.58419 27136 ft 470 kts 211°
2026-05-05 12:25 24.21143 54.56733 27877 ft 474 kts 209°
2026-05-05 12:25 24.18153 54.55129 28567 ft 479 kts 208°
2026-05-05 12:25 24.15152 54.53526 29253 ft 483 kts 209°
2026-05-05 12:26 24.12143 54.51838 29893 ft 487 kts 210°
2026-05-05 12:26 24.09130 54.50133 30455 ft 491 kts 210°
2026-05-05 12:26 24.06016 54.48418 31004 ft 495 kts 209°
2026-05-05 12:26 24.02971 54.46760 31595 ft 497 kts 210°
2026-05-05 12:27 23.99899 54.45065 32427 ft 494 kts 210°
2026-05-05 12:27 23.96840 54.43362 33204 ft 492 kts 210°
2026-05-05 12:27 23.93793 54.41677 33958 ft 491 kts 210°
2026-05-05 12:27 23.90737 54.40000 34691 ft 488 kts 210°
2026-05-05 12:28 23.87712 54.38337 35441 ft 484 kts 210°
2026-05-05 12:28 23.84721 54.36685 36191 ft 480 kts 210°
2026-05-05 12:28 23.81750 54.35046 36707 ft 483 kts 210°
2026-05-05 12:28 23.78723 54.33378 36714 ft 491 kts 210°
2026-05-05 12:29 23.72681 54.30065 36720 ft 481 kts 210°
2026-05-05 12:29 23.66733 54.26792 36715 ft 476 kts 210°
2026-05-05 12:30 23.60792 54.23534 36716 ft 478 kts 210°
2026-05-05 12:30 23.54853 54.20279 36715 ft 478 kts 210°
2026-05-05 12:31 23.48916 54.17027 36713 ft 478 kts 210°
2026-05-05 12:31 23.42966 54.13773 36710 ft 479 kts 210°
2026-05-05 12:32 23.37003 54.10514 36710 ft 480 kts 210°
2026-05-05 12:32 23.31084 54.07283 36708 ft 480 kts 210°
2026-05-05 12:33 23.25107 54.04023 36713 ft 480 kts 210°
2026-05-05 12:33 23.19123 54.00763 36715 ft 486 kts 210°
2026-05-05 12:34 23.12958 53.97406 36729 ft 499 kts 209°
2026-05-05 12:34 23.06764 53.94041 36726 ft 502 kts 209°
2026-05-05 12:35 23.00486 53.90630 36714 ft 502 kts 209°
2026-05-05 12:35 22.94281 53.87264 36723 ft 501 kts 209°
2026-05-05 12:36 22.88053 53.83888 36720 ft 501 kts 209°
2026-05-05 12:36 22.81802 53.80504 36717 ft 501 kts 209°
2026-05-05 12:37 22.75564 53.77130 36717 ft 501 kts 209°
2026-05-05 12:37 22.69328 53.73760 36712 ft 501 kts 209°
2026-05-05 12:38 22.63083 53.70389 36711 ft 502 kts 209°
2026-05-05 12:38 22.56812 53.67008 36704 ft 503 kts 209°
2026-05-05 12:39 22.50562 53.63641 36705 ft 503 kts 209°
2026-05-05 12:39 22.44292 53.60267 36699 ft 502 kts 209°
2026-05-05 12:40 22.38027 53.56899 36696 ft 503 kts 209°
2026-05-05 12:40 22.31767 53.53537 36695 ft 503 kts 209°
2026-05-05 12:41 22.25554 53.50204 36693 ft 503 kts 208°
2026-05-05 12:41 22.19244 53.46822 36695 ft 503 kts 208°
2026-05-05 12:42 22.12974 53.43465 36691 ft 503 kts 208°
2026-05-05 12:42 22.06713 53.40116 36693 ft 504 kts 208°
2026-05-05 12:43 22.00466 53.36778 36710 ft 504 kts 208°
2026-05-05 12:43 21.94177 53.33421 36702 ft 504 kts 208°
2026-05-05 12:44 21.87894 53.30070 36708 ft 504 kts 208°
2026-05-05 12:44 21.81616 53.26725 36704 ft 504 kts 208°
2026-05-05 12:45 21.75319 53.23374 36701 ft 504 kts 208°
2026-05-05 12:45 21.69037 53.20033 36699 ft 504 kts 208°
2026-05-05 12:46 21.62761 53.16699 36696 ft 504 kts 208°
2026-05-05 12:46 21.56471 53.13362 36694 ft 504 kts 208°
2026-05-05 12:47 21.50184 53.10029 36692 ft 504 kts 208°
2026-05-05 12:47 21.43886 53.06693 36689 ft 505 kts 208°
2026-05-05 12:48 21.37621 53.03377 36692 ft 505 kts 208°
2026-05-05 12:48 21.31324 53.00049 36692 ft 505 kts 208°
2026-05-05 12:49 21.25030 52.96724 36693 ft 506 kts 208°
2026-05-05 12:49 21.18713 52.93392 36693 ft 507 kts 208°
2026-05-05 12:50 21.12382 52.90055 36693 ft 506 kts 208°
2026-05-05 12:50 21.06053 52.86722 36693 ft 507 kts 208°
2026-05-05 12:51 20.99863 52.83465 36693 ft 506 kts 208°
2026-05-05 12:51 20.93539 52.80141 36693 ft 507 kts 208°
2026-05-05 12:52 20.87208 52.76816 36695 ft 507 kts 208°
2026-05-05 12:52 20.80882 52.73498 36691 ft 507 kts 208°
2026-05-05 12:53 20.77848 52.71907 36693 ft 507 kts 208°
2026-05-05 12:53 20.72063 52.68876 36696 ft 508 kts 208°
2026-05-05 12:54 20.62568 52.63907 36700 ft 507 kts 207°
2026-05-05 12:55 20.56203 52.60580 36699 ft 508 kts 207°
2026-05-05 12:55 20.49863 52.57269 36698 ft 509 kts 207°
2026-05-05 12:56 20.43512 52.53956 36702 ft 508 kts 207°
2026-05-05 12:56 20.37142 52.50635 36698 ft 508 kts 207°
2026-05-05 12:57 20.30829 52.47347 36698 ft 509 kts 207°
2026-05-05 12:57 20.24460 52.44034 36700 ft 509 kts 207°
2026-05-05 12:58 20.18107 52.40731 36697 ft 509 kts 207°
2026-05-05 12:58 20.11752 52.37431 36702 ft 508 kts 207°
2026-05-05 12:59 20.05388 52.34128 36700 ft 509 kts 207°
2026-05-05 12:59 19.99101 52.30869 36705 ft 509 kts 207°
2026-05-05 13:00 19.89550 52.25923 36705 ft 509 kts 207°
2026-05-05 13:01 19.76774 52.19318 36704 ft 509 kts 207°
2026-05-05 13:01 19.70409 52.16031 36709 ft 508 kts 207°
2026-05-05 13:02 19.64097 52.12775 36708 ft 508 kts 207°
2026-05-05 13:02 19.57737 52.09497 36711 ft 508 kts 207°
2026-05-05 13:03 19.51378 52.06223 36713 ft 508 kts 207°
2026-05-05 13:03 19.45013 52.02948 36714 ft 508 kts 207°
2026-05-05 13:04 19.38643 51.99673 36710 ft 509 kts 207°
2026-05-05 13:04 19.32269 51.96400 36709 ft 509 kts 207°
2026-05-05 13:05 19.25897 51.93130 36711 ft 509 kts 207°
2026-05-05 13:05 19.19512 51.89856 36714 ft 510 kts 207°
2026-05-05 13:06 19.13140 51.86592 36711 ft 509 kts 207°
2026-05-05 13:06 19.07832 51.83875 36712 ft 510 kts 207°
2026-05-05 13:07 19.01404 51.80587 36713 ft 510 kts 207°
2026-05-05 13:07 18.95051 51.77341 36717 ft 511 kts 207°
2026-05-05 13:08 18.88650 51.74073 36715 ft 511 kts 206°
2026-05-05 13:08 18.82235 51.70800 36714 ft 511 kts 206°
2026-05-05 13:09 18.75824 51.67532 36718 ft 512 kts 206°
2026-05-05 13:09 18.69421 51.64271 36713 ft 512 kts 206°
2026-05-05 13:10 18.63017 51.61013 36713 ft 511 kts 206°
2026-05-05 13:10 18.56598 51.57749 36713 ft 511 kts 206°
2026-05-05 13:11 18.50196 51.54496 36714 ft 511 kts 206°
2026-05-05 13:11 18.43783 51.51242 36716 ft 511 kts 206°
2026-05-05 13:12 18.37389 51.47999 36716 ft 511 kts 206°
2026-05-05 13:12 18.30970 51.44746 36719 ft 512 kts 206°
2026-05-05 13:13 18.24559 51.41500 36716 ft 511 kts 206°
2026-05-05 13:13 18.18155 51.38261 36721 ft 512 kts 206°
2026-05-05 13:14 18.11742 51.35019 36722 ft 512 kts 206°
2026-05-05 13:14 18.05356 51.31794 36722 ft 512 kts 206°
2026-05-05 13:15 17.98934 51.28553 36725 ft 512 kts 206°
2026-05-05 13:15 17.92502 51.25309 36726 ft 512 kts 206°
2026-05-05 13:16 17.86092 51.22080 36731 ft 512 kts 206°
2026-05-05 13:16 17.79655 51.18839 36734 ft 512 kts 206°
2026-05-05 13:17 17.73231 51.15608 36736 ft 512 kts 206°
2026-05-05 13:17 17.66805 51.12378 36744 ft 512 kts 206°
2026-05-05 13:18 17.60365 51.09143 36745 ft 512 kts 206°
2026-05-05 13:18 17.53950 51.05924 36745 ft 512 kts 206°
2026-05-05 13:19 17.47530 51.02705 36746 ft 512 kts 206°
2026-05-05 13:19 17.41085 50.99475 36753 ft 513 kts 206°
2026-05-05 13:20 17.34644 50.96251 36755 ft 513 kts 206°
2026-05-05 13:20 17.28233 50.93044 36758 ft 514 kts 206°
2026-05-05 13:21 17.21732 50.89794 36758 ft 515 kts 206°
2026-05-05 13:21 17.15263 50.86563 36765 ft 515 kts 206°
2026-05-05 13:22 17.08812 50.83344 36769 ft 515 kts 206°
2026-05-05 13:22 17.02383 50.80137 36775 ft 515 kts 206°
2026-05-05 13:23 16.95868 50.76891 36778 ft 515 kts 206°
2026-05-05 13:23 16.89406 50.73673 36778 ft 515 kts 206°
2026-05-05 13:24 16.82993 50.70483 36778 ft 515 kts 206°
2026-05-05 13:24 16.76540 50.67274 36780 ft 515 kts 206°
2026-05-05 13:25 16.70055 50.64052 36781 ft 514 kts 206°
2026-05-05 13:25 16.63592 50.60844 36779 ft 515 kts 206°
2026-05-05 13:26 16.57133 50.57640 36777 ft 515 kts 206°
2026-05-05 13:26 16.50654 50.54428 36776 ft 515 kts 205°
2026-05-05 13:27 16.44180 50.51222 36773 ft 515 kts 205°
2026-05-05 13:27 16.37714 50.48021 36769 ft 516 kts 205°
2026-05-05 13:28 16.31233 50.44815 36766 ft 516 kts 205°
2026-05-05 13:28 16.24782 50.41628 36765 ft 516 kts 205°
2026-05-05 13:29 16.18252 50.38403 36765 ft 516 kts 205°
2026-05-05 13:29 16.11820 50.35229 36762 ft 516 kts 205°
2026-05-05 13:30 16.05323 50.32024 36762 ft 517 kts 205°
2026-05-05 13:30 15.98814 50.28817 36759 ft 517 kts 205°
2026-05-05 13:31 15.92320 50.25620 36757 ft 517 kts 205°
2026-05-05 13:31 15.85818 50.22420 36762 ft 517 kts 205°
2026-05-05 13:32 15.79309 50.19219 36765 ft 518 kts 205°
2026-05-05 13:32 15.72795 50.16018 36774 ft 518 kts 205°
2026-05-05 13:33 15.66279 50.12819 36786 ft 518 kts 205°
2026-05-05 13:33 15.59763 50.09622 36798 ft 518 kts 205°
2026-05-05 13:34 15.53253 50.06430 36817 ft 518 kts 205°
2026-05-05 13:34 15.46733 50.03235 36837 ft 518 kts 205°
2026-05-05 13:35 15.40210 50.00041 36848 ft 518 kts 205°
2026-05-05 13:35 15.33688 49.96850 36859 ft 519 kts 205°
2026-05-05 13:36 15.27169 49.93662 36861 ft 519 kts 205°
2026-05-05 13:36 15.20631 49.90467 36863 ft 519 kts 205°
2026-05-05 13:37 15.14140 49.87298 36866 ft 519 kts 205°
2026-05-05 13:37 15.07558 49.84087 36860 ft 520 kts 205°
2026-05-05 13:38 15.01065 49.80920 36859 ft 519 kts 205°
2026-05-05 13:38 14.94527 49.77735 36850 ft 520 kts 205°
2026-05-05 13:39 14.87971 49.74542 36842 ft 520 kts 205°
2026-05-05 13:39 14.81397 49.71343 36832 ft 520 kts 205°
2026-05-05 13:40 14.74874 49.68171 36826 ft 520 kts 205°
2026-05-05 13:40 14.68331 49.64992 36820 ft 521 kts 205°
2026-05-05 13:41 14.61769 49.61804 36818 ft 521 kts 205°
2026-05-05 13:41 14.55208 49.58620 36812 ft 521 kts 205°
2026-05-05 13:42 14.48650 49.55439 36814 ft 520 kts 205°
2026-05-05 13:42 14.42093 49.52261 36808 ft 520 kts 205°
2026-05-05 13:43 14.35536 49.49085 36810 ft 521 kts 205°
2026-05-05 13:43 14.28968 49.45906 36806 ft 521 kts 205°
2026-05-05 13:44 14.22399 49.42728 36809 ft 521 kts 205°
2026-05-05 13:44 14.15864 49.39569 36811 ft 520 kts 205°
2026-05-05 13:45 14.09293 49.36394 36812 ft 520 kts 205°
2026-05-05 13:45 14.02753 49.33237 36809 ft 520 kts 205°
2026-05-05 13:46 13.96213 49.30081 36808 ft 520 kts 205°
2026-05-05 13:46 13.89693 49.26937 36806 ft 521 kts 205°
2026-05-05 13:47 13.83133 49.23776 36807 ft 520 kts 205°
2026-05-05 13:47 13.76570 49.20615 36810 ft 521 kts 205°
2026-05-05 13:48 13.69995 49.17450 36807 ft 522 kts 205°
2026-05-05 13:48 13.63377 49.14267 36810 ft 521 kts 205°
2026-05-05 13:49 13.56862 49.11135 36808 ft 520 kts 205°
2026-05-05 13:49 13.50315 49.07990 36804 ft 519 kts 205°
2026-05-05 13:50 13.43772 49.04848 36802 ft 519 kts 205°
2026-05-05 13:50 13.37223 49.01706 36801 ft 520 kts 205°
2026-05-05 13:51 13.30671 48.98564 36802 ft 520 kts 205°
2026-05-05 13:51 13.24107 48.95418 36803 ft 520 kts 205°
2026-05-05 13:52 13.17551 48.92278 36805 ft 520 kts 205°
2026-05-05 13:52 13.11006 48.89145 36803 ft 520 kts 205°
2026-05-05 13:53 13.04440 48.86004 36802 ft 520 kts 205°
2026-05-05 13:53 12.97897 48.82876 36801 ft 519 kts 205°
2026-05-05 13:54 12.91350 48.79747 36801 ft 519 kts 205°
2026-05-05 13:54 12.84805 48.76622 36799 ft 519 kts 205°
2026-05-05 13:55 12.79369 48.74027 36797 ft 519 kts 205°
2026-05-05 13:55 12.71748 48.70391 36798 ft 519 kts 205°
2026-05-05 13:56 12.65203 48.67271 36798 ft 519 kts 205°
2026-05-05 13:56 12.59733 48.64664 36799 ft 518 kts 205°
2026-05-05 13:57 12.53185 48.61546 36797 ft 518 kts 205°
2026-05-05 13:57 12.45603 48.57937 36798 ft 518 kts 205°
2026-05-05 13:58 12.40131 48.55334 36797 ft 518 kts 205°
2026-05-05 13:58 12.33629 48.52243 36797 ft 518 kts 205°
2026-05-05 13:59 12.23821 48.47583 36798 ft 518 kts 205°
2026-05-05 14:00 12.14004 48.42923 36797 ft 519 kts 205°
2026-05-05 14:00 12.07451 48.39813 36796 ft 519 kts 205°
2026-05-05 14:01 12.00905 48.36710 36795 ft 519 kts 205°
2026-05-05 14:01 11.94381 48.33618 36793 ft 519 kts 205°
2026-05-05 14:02 11.87825 48.30513 36793 ft 519 kts 205°
2026-05-05 14:02 11.81277 48.27413 36796 ft 520 kts 205°
2026-05-05 14:03 11.74691 48.24297 36798 ft 520 kts 205°
2026-05-05 14:03 11.68164 48.21211 36799 ft 520 kts 205°
2026-05-05 14:04 11.61603 48.18109 36798 ft 520 kts 205°
2026-05-05 14:04 11.55046 48.15012 36799 ft 520 kts 205°
2026-05-05 14:05 11.48487 48.11915 36798 ft 519 kts 205°
2026-05-05 14:05 11.41928 48.08820 36803 ft 520 kts 205°
2026-05-05 14:06 11.35366 48.05724 36806 ft 520 kts 205°
2026-05-05 14:06 11.28805 48.02632 36814 ft 521 kts 205°
2026-05-05 14:07 11.22202 47.99521 36825 ft 521 kts 204°
2026-05-05 14:07 11.15645 47.96432 36834 ft 520 kts 204°
2026-05-05 14:08 11.09052 47.93329 36849 ft 520 kts 204°
2026-05-05 14:08 11.02529 47.90260 36865 ft 521 kts 204°
2026-05-05 14:09 10.95945 47.87164 36877 ft 520 kts 204°
2026-05-05 14:09 10.89343 47.84061 36886 ft 521 kts 204°
2026-05-05 14:10 10.82767 47.80972 36894 ft 521 kts 204°
2026-05-05 14:10 10.76227 47.77900 36901 ft 520 kts 204°
2026-05-05 14:11 10.69652 47.74815 36908 ft 520 kts 204°
2026-05-05 14:11 10.63075 47.71729 36912 ft 520 kts 204°
2026-05-05 14:12 10.56506 47.68649 36912 ft 520 kts 204°
2026-05-05 14:12 10.49924 47.65564 36912 ft 521 kts 204°
2026-05-05 14:13 10.43343 47.62482 36908 ft 521 kts 204°
2026-05-05 14:13 10.36751 47.59395 36903 ft 522 kts 204°
2026-05-05 14:14 10.30152 47.56307 36898 ft 521 kts 204°
2026-05-05 14:14 10.23574 47.53230 36891 ft 521 kts 204°
2026-05-05 14:15 10.16992 47.50152 36884 ft 521 kts 204°
2026-05-05 14:15 10.10427 47.47084 36877 ft 520 kts 204°
2026-05-05 14:16 10.03837 47.44005 36872 ft 521 kts 204°
2026-05-05 14:16 9.97240 47.40925 36866 ft 521 kts 204°
2026-05-05 14:17 9.90654 47.37851 36864 ft 522 kts 204°
2026-05-05 14:17 9.84053 47.34771 36857 ft 523 kts 204°
2026-05-05 14:18 9.77429 47.31682 36853 ft 523 kts 204°
2026-05-05 14:18 9.70835 47.28609 36848 ft 522 kts 204°
2026-05-05 14:19 9.64230 47.25532 36840 ft 523 kts 204°
2026-05-05 14:19 9.57624 47.22455 36837 ft 523 kts 204°
2026-05-05 14:20 9.51003 47.19373 36834 ft 524 kts 204°
2026-05-05 14:20 9.44361 47.16283 36828 ft 523 kts 204°
2026-05-05 14:21 9.37753 47.13209 36825 ft 523 kts 204°
2026-05-05 14:21 9.31187 47.10156 36819 ft 522 kts 205°
2026-05-05 14:22 9.24593 47.07092 36809 ft 522 kts 204°
2026-05-05 14:22 9.17960 47.04011 36809 ft 521 kts 204°
2026-05-05 14:23 9.11380 47.00956 36803 ft 521 kts 205°
2026-05-05 14:23 9.04816 46.97909 36806 ft 521 kts 205°
2026-05-05 14:24 8.98227 46.94852 36808 ft 521 kts 205°
2026-05-05 14:24 8.91644 46.91798 36809 ft 521 kts 205°
2026-05-05 14:25 8.85050 46.88742 36815 ft 521 kts 204°
2026-05-05 14:25 8.78467 46.85691 36816 ft 521 kts 204°
2026-05-05 14:26 8.71861 46.82631 36825 ft 521 kts 204°
2026-05-05 14:26 8.65264 46.79576 36828 ft 522 kts 205°
2026-05-05 14:27 8.58668 46.76523 36826 ft 521 kts 205°
2026-05-05 14:27 8.52069 46.73470 36827 ft 522 kts 205°
2026-05-05 14:28 8.45468 46.70417 36828 ft 521 kts 205°
2026-05-05 14:28 8.38880 46.67371 36828 ft 522 kts 205°
2026-05-05 14:29 8.32279 46.64320 36828 ft 521 kts 205°
2026-05-05 14:29 8.25669 46.61267 36829 ft 521 kts 205°
2026-05-05 14:30 8.19116 46.58240 36829 ft 521 kts 205°
2026-05-05 14:30 8.12490 46.55181 36826 ft 521 kts 205°
2026-05-05 14:31 8.05901 46.52141 36831 ft 521 kts 205°
2026-05-05 14:31 7.99341 46.49114 36835 ft 521 kts 205°
2026-05-05 14:32 7.92737 46.46069 36831 ft 521 kts 205°
2026-05-05 14:32 7.86144 46.43029 36839 ft 521 kts 205°
2026-05-05 14:33 7.79549 46.39990 36837 ft 521 kts 205°
2026-05-05 14:33 7.72962 46.36956 36839 ft 521 kts 204°
2026-05-05 14:34 7.66375 46.33923 36837 ft 520 kts 205°
2026-05-05 14:34 7.59791 46.30891 36839 ft 520 kts 205°
2026-05-05 14:35 7.53212 46.27864 36837 ft 520 kts 205°
2026-05-05 14:35 7.46620 46.24831 36837 ft 520 kts 205°
2026-05-05 14:36 7.40041 46.21805 36835 ft 520 kts 205°
2026-05-05 14:36 7.33445 46.18773 36835 ft 521 kts 204°
2026-05-05 14:37 7.26853 46.15743 36836 ft 521 kts 204°
2026-05-05 14:37 7.20257 46.12713 36840 ft 521 kts 205°
2026-05-05 14:38 7.13653 46.09680 36838 ft 521 kts 205°
2026-05-05 14:38 7.07053 46.06649 36842 ft 521 kts 205°
2026-05-05 14:39 7.00525 46.03653 36841 ft 521 kts 205°
2026-05-05 14:39 6.93961 46.00641 36843 ft 521 kts 205°
2026-05-05 14:40 6.87322 45.97596 36845 ft 521 kts 205°
2026-05-05 14:40 6.80737 45.94576 36850 ft 521 kts 205°
2026-05-05 14:41 6.74172 45.91567 36849 ft 520 kts 205°
2026-05-05 14:41 6.67549 45.88531 36849 ft 521 kts 205°
2026-05-05 14:42 6.60993 45.85528 36849 ft 521 kts 205°
2026-05-05 14:42 6.54390 45.82503 36856 ft 521 kts 205°
2026-05-05 14:43 6.47808 45.79489 36858 ft 520 kts 204°
2026-05-05 14:43 6.41233 45.76479 36858 ft 519 kts 205°
2026-05-05 14:44 6.35707 45.73951 36857 ft 519 kts 204°
2026-05-05 14:44 6.29181 45.70965 36859 ft 520 kts 204°
2026-05-05 14:45 6.22541 45.67928 36861 ft 520 kts 204°
2026-05-05 14:45 6.16006 45.64939 36858 ft 520 kts 205°
2026-05-05 14:46 6.09432 45.61934 36862 ft 519 kts 205°
2026-05-05 14:46 6.02865 45.58933 36861 ft 519 kts 205°
2026-05-05 14:47 5.96277 45.55923 36865 ft 520 kts 205°
2026-05-05 14:47 5.89691 45.52914 36867 ft 521 kts 205°
2026-05-05 14:48 5.83067 45.49889 36868 ft 522 kts 205°
2026-05-05 14:48 5.76473 45.46879 36869 ft 521 kts 205°
2026-05-05 14:49 5.69864 45.43863 36872 ft 521 kts 205°
2026-05-05 14:49 5.63280 45.40858 36872 ft 521 kts 205°
2026-05-05 14:50 5.56678 45.37847 36879 ft 521 kts 205°
2026-05-05 14:50 5.50052 45.34824 36878 ft 522 kts 205°
2026-05-05 14:51 5.43442 45.31810 36881 ft 522 kts 205°
2026-05-05 14:51 5.36829 45.28796 36880 ft 523 kts 205°
2026-05-05 14:52 5.30205 45.25777 36878 ft 523 kts 205°
2026-05-05 14:52 5.23689 45.22808 36881 ft 523 kts 205°
2026-05-05 14:53 5.17069 45.19792 36878 ft 524 kts 205°
2026-05-05 14:53 5.10471 45.16787 36876 ft 524 kts 205°
2026-05-05 14:54 5.03831 45.13764 36874 ft 524 kts 205°
2026-05-05 14:54 4.97160 45.10727 36873 ft 524 kts 205°
2026-05-05 14:55 4.90557 45.07722 36875 ft 524 kts 205°
2026-05-05 14:55 4.83927 45.04705 36876 ft 524 kts 205°
2026-05-05 14:56 4.77271 45.01678 36876 ft 524 kts 205°
2026-05-05 14:56 4.71429 44.99020 36885 ft 525 kts 205°
2026-05-05 14:57 4.64762 44.95989 36887 ft 525 kts 205°
2026-05-05 14:57 4.58109 44.92963 36888 ft 525 kts 205°
2026-05-05 14:58 4.51492 44.89955 36897 ft 526 kts 205°
2026-05-05 14:58 4.44847 44.86936 36897 ft 526 kts 205°
2026-05-05 14:59 4.38195 44.83913 36902 ft 527 kts 205°
2026-05-05 14:59 4.31556 44.80897 36899 ft 527 kts 205°
2026-05-05 15:00 4.25956 44.78353 36903 ft 527 kts 205°
2026-05-05 15:00 4.18148 44.74808 36905 ft 527 kts 205°
2026-05-05 15:01 4.11524 44.71800 36910 ft 527 kts 205°
2026-05-05 15:01 4.04808 44.68752 36903 ft 527 kts 205°
2026-05-05 15:02 3.98154 44.65731 36906 ft 527 kts 205°
2026-05-05 15:02 3.91453 44.62691 36915 ft 527 kts 205°
2026-05-05 15:03 3.84812 44.59678 36913 ft 527 kts 205°
2026-05-05 15:03 3.78122 44.56643 36917 ft 528 kts 205°
2026-05-05 15:04 3.71431 44.53609 36914 ft 529 kts 205°
2026-05-05 15:04 3.64728 44.50569 36921 ft 529 kts 205°
2026-05-05 15:05 3.54662 44.46005 36926 ft 530 kts 205°
2026-05-05 15:06 3.47943 44.42960 36926 ft 530 kts 205°
2026-05-05 15:06 3.41227 44.39916 36926 ft 530 kts 205°
2026-05-05 15:07 3.34511 44.36872 36923 ft 530 kts 205°
2026-05-05 15:07 3.27779 44.33822 36920 ft 531 kts 205°
2026-05-05 15:08 3.21092 44.30793 36925 ft 531 kts 205°
2026-05-05 15:08 3.14354 44.27741 36921 ft 531 kts 205°
2026-05-05 15:09 3.07622 44.24692 36920 ft 532 kts 205°
2026-05-05 15:09 3.00878 44.21639 36921 ft 532 kts 205°
2026-05-05 15:10 2.94122 44.18580 36919 ft 532 kts 205°
2026-05-05 15:10 2.87379 44.15527 36919 ft 533 kts 205°
2026-05-05 15:11 2.80684 44.12497 36917 ft 533 kts 205°
2026-05-05 15:11 2.73944 44.09447 36915 ft 533 kts 205°
2026-05-05 15:12 2.67187 44.06389 36915 ft 533 kts 205°
2026-05-05 15:12 2.60435 44.03334 36914 ft 533 kts 205°
2026-05-05 15:13 2.53676 44.00276 36911 ft 532 kts 205°
2026-05-05 15:13 2.46916 43.97218 36915 ft 532 kts 205°
2026-05-05 15:14 2.40220 43.94189 36918 ft 532 kts 205°
2026-05-05 15:14 2.33437 43.91122 36913 ft 532 kts 204°
2026-05-05 15:15 2.26713 43.88081 36916 ft 531 kts 204°
2026-05-05 15:15 2.20023 43.85056 36916 ft 530 kts 204°
2026-05-05 15:16 2.13300 43.82017 36917 ft 530 kts 204°
2026-05-05 15:16 2.06571 43.78975 36912 ft 530 kts 204°
2026-05-05 15:17 1.99860 43.75941 36917 ft 530 kts 204°
2026-05-05 15:17 1.93134 43.72900 36918 ft 530 kts 204°
2026-05-05 15:18 1.86414 43.69863 36913 ft 530 kts 204°
2026-05-05 15:18 1.79709 43.66833 36911 ft 530 kts 204°
2026-05-05 15:19 1.72984 43.63794 36910 ft 530 kts 204°
2026-05-05 15:19 1.66250 43.60752 36910 ft 530 kts 204°
2026-05-05 15:20 1.59535 43.57718 36909 ft 529 kts 204°
2026-05-05 15:20 1.52836 43.54692 36907 ft 529 kts 204°
2026-05-05 15:21 1.46129 43.51662 36907 ft 529 kts 204°
2026-05-05 15:21 1.39412 43.48628 36908 ft 529 kts 204°
2026-05-05 15:22 1.32701 43.45596 36904 ft 529 kts 204°
2026-05-05 15:22 1.26005 43.42572 36904 ft 529 kts 204°
2026-05-05 15:23 1.19280 43.39535 36901 ft 529 kts 204°
2026-05-05 15:23 1.12568 43.36503 36903 ft 529 kts 204°
2026-05-05 15:24 1.05862 43.33475 36898 ft 529 kts 204°
2026-05-05 15:24 0.99192 43.30463 36903 ft 529 kts 204°
2026-05-05 15:25 0.92437 43.27413 36901 ft 530 kts 204°
2026-05-05 15:25 0.85722 43.24381 36900 ft 530 kts 204°
2026-05-05 15:26 0.78996 43.21344 36903 ft 530 kts 204°
2026-05-05 15:26 0.72297 43.18320 36903 ft 530 kts 204°
2026-05-05 15:27 0.65560 43.15278 36901 ft 530 kts 204°
2026-05-05 15:27 0.58839 43.12244 36903 ft 531 kts 204°
2026-05-05 15:28 0.52109 43.09205 36904 ft 531 kts 204°
2026-05-05 15:28 0.45381 43.06168 36905 ft 531 kts 204°
2026-05-05 15:29 0.38692 43.03148 36906 ft 531 kts 204°
2026-05-05 15:29 0.31949 43.00105 36906 ft 532 kts 204°
2026-05-05 15:30 0.25196 42.97056 36904 ft 532 kts 204°
2026-05-05 15:30 0.18455 42.94013 36907 ft 532 kts 204°
2026-05-05 15:31 0.11695 42.90961 36903 ft 533 kts 204°
2026-05-05 15:31 0.04936 42.87910 36905 ft 533 kts 204°
2026-05-05 15:32 -0.00674 42.85378 36903 ft 534 kts 204°
2026-05-05 15:32 -0.07452 42.82318 36906 ft 534 kts 204°
2026-05-05 15:33 -0.14212 42.79267 36908 ft 534 kts 204°
2026-05-05 15:33 -0.20989 42.76207 36909 ft 535 kts 204°
2026-05-05 15:34 -0.27774 42.73145 36911 ft 535 kts 204°
2026-05-05 15:34 -0.34562 42.70080 36911 ft 535 kts 204°
2026-05-05 15:35 -0.41348 42.67017 36910 ft 535 kts 204°
2026-05-05 15:35 -0.49249 42.63450 36914 ft 536 kts 204°
2026-05-05 15:36 -0.54927 42.60887 36914 ft 536 kts 204°
2026-05-05 15:36 -0.61725 42.57818 36911 ft 536 kts 204°
2026-05-05 15:37 -0.68533 42.54744 36914 ft 537 kts 204°
2026-05-05 15:37 -0.75342 42.51670 36916 ft 536 kts 204°
2026-05-05 15:38 -0.82099 42.48619 36916 ft 536 kts 204°
2026-05-05 15:38 -0.88944 42.45529 36914 ft 536 kts 204°
2026-05-05 15:39 -0.95691 42.42482 36912 ft 536 kts 204°
2026-05-05 15:39 -1.02473 42.39419 36914 ft 535 kts 204°
2026-05-05 15:40 -1.09230 42.36368 36913 ft 535 kts 203°
2026-05-05 15:40 -1.16057 42.33285 36913 ft 535 kts 203°
2026-05-05 15:41 -1.22838 42.30222 36913 ft 535 kts 203°
2026-05-05 15:41 -1.29627 42.27157 36914 ft 536 kts 203°
2026-05-05 15:42 -1.36462 42.24069 36918 ft 536 kts 203°
2026-05-05 15:42 -1.43257 42.21000 36921 ft 536 kts 203°
2026-05-05 15:43 -1.49999 42.17954 36922 ft 536 kts 203°
2026-05-05 15:43 -1.56848 42.14860 36919 ft 536 kts 203°
2026-05-05 15:44 -1.63605 42.11807 36924 ft 536 kts 203°
2026-05-05 15:44 -1.70392 42.08740 36925 ft 536 kts 203°
2026-05-05 15:45 -1.77183 42.05672 36928 ft 536 kts 203°
2026-05-05 15:45 -1.83983 42.02599 36928 ft 536 kts 203°
2026-05-05 15:46 -1.90784 41.99526 36929 ft 537 kts 203°
2026-05-05 15:46 -1.97588 41.96451 36931 ft 537 kts 203°
2026-05-05 15:47 -2.04395 41.93373 36928 ft 536 kts 203°
2026-05-05 15:47 -2.11199 41.90298 36930 ft 537 kts 203°
2026-05-05 15:48 -2.18007 41.87220 36932 ft 537 kts 203°
2026-05-05 15:48 -2.24831 41.84134 36930 ft 537 kts 203°
2026-05-05 15:49 -2.31619 41.81065 36930 ft 537 kts 203°
2026-05-05 15:49 -2.38424 41.77987 36931 ft 537 kts 203°
2026-05-05 15:50 -2.45238 41.74905 36930 ft 537 kts 204°
2026-05-05 15:50 -2.52039 41.71829 36929 ft 537 kts 204°
2026-05-05 15:51 -2.58844 41.68751 36931 ft 537 kts 204°
2026-05-05 15:51 -2.65646 41.65672 36932 ft 537 kts 204°
2026-05-05 15:52 -2.72444 41.62597 36932 ft 537 kts 204°
2026-05-05 15:52 -2.79255 41.59514 36930 ft 537 kts 204°
2026-05-05 15:53 -2.86022 41.56451 36931 ft 537 kts 204°
2026-05-05 15:53 -2.92824 41.53372 36928 ft 537 kts 204°
2026-05-05 15:54 -2.99625 41.50293 36929 ft 536 kts 204°
2026-05-05 15:54 -3.06420 41.47216 36927 ft 537 kts 204°
2026-05-05 15:55 -3.13227 41.44133 36929 ft 537 kts 204°
2026-05-05 15:55 -3.20020 41.41057 36929 ft 537 kts 204°
2026-05-05 15:56 -3.26837 41.37968 36928 ft 537 kts 204°
2026-05-05 15:56 -3.33630 41.34891 36930 ft 537 kts 204°
2026-05-05 15:57 -3.40432 41.31808 36931 ft 537 kts 204°
2026-05-05 15:57 -3.47239 41.28724 36929 ft 536 kts 204°
2026-05-05 15:58 -3.54041 41.25640 36932 ft 537 kts 204°
2026-05-05 15:58 -3.60857 41.22550 36933 ft 537 kts 204°
2026-05-05 15:59 -3.67662 41.19465 36932 ft 537 kts 204°
2026-05-05 15:59 -3.74451 41.16386 36933 ft 537 kts 204°
2026-05-05 16:00 -3.81263 41.13296 36931 ft 537 kts 204°
2026-05-05 16:00 -3.88056 41.10215 36933 ft 537 kts 204°
2026-05-05 16:01 -3.94847 41.07133 36937 ft 536 kts 204°
2026-05-05 16:01 -4.01648 41.04047 36932 ft 537 kts 204°
2026-05-05 16:02 -4.08464 41.00953 36932 ft 537 kts 204°
2026-05-05 16:02 -4.15260 40.97868 36933 ft 537 kts 204°
2026-05-05 16:03 -4.22061 40.94780 36939 ft 537 kts 204°
2026-05-05 16:03 -4.28836 40.91703 36938 ft 536 kts 204°
2026-05-05 16:04 -4.35549 40.88653 36941 ft 536 kts 204°
2026-05-05 16:04 -4.42346 40.85565 36938 ft 536 kts 204°
2026-05-05 16:05 -4.49150 40.82473 36939 ft 537 kts 204°
2026-05-05 16:05 -4.55938 40.79388 36942 ft 536 kts 204°
2026-05-05 16:06 -4.62735 40.76298 36943 ft 536 kts 204°
2026-05-05 16:06 -4.69526 40.73210 36944 ft 536 kts 204°
2026-05-05 16:07 -4.76314 40.70122 36945 ft 535 kts 204°
2026-05-05 16:07 -4.83096 40.67037 36942 ft 535 kts 204°
2026-05-05 16:08 -4.89859 40.63960 36944 ft 534 kts 203°
2026-05-05 16:08 -4.96634 40.60876 36945 ft 534 kts 203°
2026-05-05 16:09 -5.03396 40.57798 36945 ft 534 kts 203°
2026-05-05 16:09 -5.10109 40.54742 36943 ft 533 kts 203°
2026-05-05 16:10 -5.16856 40.51669 36943 ft 533 kts 203°
2026-05-05 16:10 -5.23613 40.48591 36946 ft 533 kts 203°
2026-05-05 16:11 -5.30363 40.45515 36945 ft 533 kts 203°
2026-05-05 16:12 -5.43871 40.39358 36947 ft 534 kts 202°
2026-05-05 16:13 -5.60778 40.31648 36948 ft 533 kts 202°
2026-05-05 16:13 -5.67532 40.28566 36950 ft 534 kts 202°
2026-05-05 16:14 -5.81039 40.22401 36952 ft 533 kts 202°
2026-05-05 16:15 -5.94559 40.16227 36950 ft 533 kts 202°
2026-05-05 16:16 -6.08070 40.10053 36953 ft 534 kts 202°
2026-05-05 16:17 -6.18190 40.05426 36953 ft 534 kts 202°
2026-05-05 16:18 -6.28338 40.00785 36952 ft 534 kts 202°
2026-05-05 16:19 -6.38419 39.96172 36950 ft 533 kts 202°
2026-05-05 16:19 -6.48530 39.91544 36948 ft 533 kts 202°
2026-05-05 16:20 -6.60886 39.85885 37958 ft 536 kts 202°
2026-05-05 16:22 -6.77662 39.78198 37927 ft 520 kts 202°
2026-05-05 16:23 -6.90890 39.72132 37951 ft 521 kts 202°
2026-05-05 16:23 -7.00679 39.67640 37952 ft 520 kts 202°
2026-05-05 16:24 -7.07325 39.64590 37951 ft 520 kts 202°
2026-05-05 16:25 -7.17183 39.60063 37952 ft 520 kts 202°
2026-05-05 16:25 -7.27060 39.55526 37950 ft 519 kts 203°
2026-05-05 16:26 -7.40206 39.49483 37952 ft 520 kts 203°
2026-05-05 16:27 -7.46799 39.46450 37954 ft 520 kts 203°
2026-05-05 16:27 -7.53360 39.43432 37949 ft 519 kts 203°
2026-05-05 16:28 -7.59933 39.40407 37958 ft 520 kts 203°
2026-05-05 16:28 -7.66517 39.37376 37960 ft 520 kts 203°
2026-05-05 16:29 -7.73101 39.34344 37961 ft 520 kts 203°
2026-05-05 16:29 -7.79667 39.31319 37962 ft 518 kts 203°
2026-05-05 16:30 -7.86221 39.28299 37963 ft 518 kts 203°
2026-05-05 16:30 -7.92747 39.25291 37959 ft 517 kts 203°
2026-05-05 16:31 -7.99318 39.22260 37956 ft 516 kts 203°
2026-05-05 16:31 -8.05844 39.19250 37958 ft 516 kts 203°
2026-05-05 16:32 -8.12348 39.16248 37963 ft 517 kts 203°
2026-05-05 16:32 -8.18903 39.13222 37964 ft 518 kts 203°
2026-05-05 16:33 -8.25452 39.10198 37969 ft 518 kts 204°
2026-05-05 16:33 -8.31992 39.07176 37972 ft 517 kts 204°
2026-05-05 16:34 -8.38543 39.04149 37974 ft 517 kts 204°
2026-05-05 16:34 -8.45063 39.01134 37970 ft 517 kts 204°
2026-05-05 16:35 -8.51630 38.98097 37969 ft 517 kts 204°
2026-05-05 16:35 -8.58172 38.95070 37970 ft 517 kts 204°
2026-05-05 16:36 -8.64707 38.92045 37966 ft 516 kts 204°
2026-05-05 16:36 -8.71234 38.89024 37965 ft 515 kts 204°
2026-05-05 16:37 -8.77750 38.86005 37961 ft 515 kts 204°
2026-05-05 16:37 -8.84274 38.82982 37968 ft 516 kts 204°
2026-05-05 16:38 -8.90798 38.79958 37961 ft 515 kts 204°
2026-05-05 16:38 -8.97278 38.76952 37962 ft 515 kts 204°
2026-05-05 16:39 -9.03839 38.73909 37966 ft 515 kts 204°
2026-05-05 16:39 -9.10352 38.70886 37961 ft 515 kts 204°
2026-05-05 16:40 -9.16827 38.67879 37963 ft 515 kts 204°
2026-05-05 16:40 -9.23333 38.64857 37964 ft 515 kts 204°
2026-05-05 16:41 -9.29830 38.61838 37964 ft 514 kts 204°
2026-05-05 16:41 -9.36340 38.58812 37969 ft 515 kts 204°
2026-05-05 16:42 -9.42844 38.55787 37969 ft 515 kts 204°
2026-05-05 16:42 -9.49286 38.52790 37971 ft 514 kts 204°
2026-05-05 16:43 -9.55779 38.49768 37967 ft 513 kts 204°
2026-05-05 16:43 -9.62269 38.46746 37964 ft 512 kts 205°
2026-05-05 16:44 -9.68728 38.43737 37959 ft 511 kts 204°
2026-05-05 16:44 -9.75188 38.40726 37963 ft 511 kts 204°
2026-05-05 16:45 -9.81640 38.37718 37965 ft 510 kts 204°
2026-05-05 16:45 -9.88102 38.34704 37962 ft 510 kts 204°
2026-05-05 16:46 -9.94551 38.31695 37965 ft 510 kts 204°
2026-05-05 16:46 -10.00946 38.28708 37961 ft 510 kts 204°
2026-05-05 16:47 -10.07393 38.25698 37960 ft 510 kts 204°
2026-05-05 16:47 -10.13847 38.22682 37964 ft 510 kts 204°
2026-05-05 16:48 -10.20283 38.19673 37967 ft 510 kts 204°
2026-05-05 16:48 -10.26743 38.16652 37971 ft 511 kts 204°
2026-05-05 16:49 -10.33189 38.13636 37972 ft 511 kts 204°
2026-05-05 16:49 -10.39651 38.10611 37978 ft 511 kts 204°
2026-05-05 16:50 -10.46081 38.07600 37972 ft 510 kts 204°
2026-05-05 16:50 -10.52512 38.04587 37974 ft 508 kts 204°
2026-05-05 16:51 -10.58906 38.01590 37972 ft 507 kts 204°
2026-05-05 16:51 -10.63467 37.99451 37973 ft 508 kts 204°
2026-05-05 16:52 -10.69895 37.96435 37975 ft 508 kts 204°
2026-05-05 16:52 -10.76270 37.93443 37971 ft 508 kts 204°
2026-05-05 16:53 -10.82723 37.90413 37972 ft 508 kts 205°
2026-05-05 16:53 -10.89147 37.87395 37974 ft 509 kts 205°
2026-05-05 16:54 -10.95573 37.84375 37975 ft 509 kts 205°
2026-05-05 16:54 -11.01968 37.81368 37973 ft 509 kts 205°
2026-05-05 16:55 -11.08380 37.78351 37968 ft 507 kts 205°
2026-05-05 16:55 -11.14797 37.75331 37970 ft 507 kts 205°
2026-05-05 16:56 -11.21198 37.72317 37973 ft 507 kts 205°
2026-05-05 16:56 -11.27591 37.69304 37972 ft 506 kts 205°
2026-05-05 16:57 -11.33980 37.66293 37971 ft 506 kts 205°
2026-05-05 16:57 -11.40380 37.63274 37972 ft 506 kts 205°
2026-05-05 16:58 -11.46767 37.60260 37971 ft 506 kts 205°
2026-05-05 16:58 -11.53095 37.57273 37971 ft 506 kts 205°
2026-05-05 16:59 -11.59526 37.54236 37975 ft 505 kts 205°
2026-05-05 16:59 -11.65878 37.51234 37973 ft 505 kts 205°
2026-05-05 17:00 -11.72286 37.48204 37979 ft 505 kts 205°
2026-05-05 17:00 -11.78659 37.45189 37974 ft 505 kts 205°
2026-05-05 17:01 -11.85041 37.42169 37977 ft 505 kts 205°
2026-05-05 17:01 -11.91386 37.39165 37985 ft 505 kts 205°
2026-05-05 17:02 -11.97753 37.36148 37991 ft 505 kts 205°
2026-05-05 17:02 -12.04131 37.33124 37996 ft 505 kts 205°
2026-05-05 17:03 -12.10561 37.30075 37993 ft 506 kts 205°
2026-05-05 17:03 -12.16894 37.27070 37998 ft 507 kts 205°
2026-05-05 17:04 -12.23352 37.24004 38001 ft 508 kts 205°
2026-05-05 17:04 -12.29706 37.20985 38002 ft 507 kts 205°
2026-05-05 17:05 -12.36087 37.17952 37998 ft 506 kts 205°
2026-05-05 17:05 -12.42520 37.14893 37999 ft 507 kts 206°
2026-05-05 17:06 -12.48884 37.11865 38001 ft 507 kts 206°
2026-05-05 17:06 -12.55292 37.08815 38002 ft 508 kts 206°
2026-05-05 17:07 -12.61685 37.05769 38002 ft 507 kts 206°
2026-05-05 17:07 -12.68062 37.02730 37999 ft 506 kts 206°
2026-05-05 17:08 -12.74447 36.99685 37997 ft 505 kts 206°
2026-05-05 17:08 -12.79020 36.97504 38000 ft 506 kts 206°
2026-05-05 17:09 -12.85385 36.94465 38004 ft 508 kts 206°
2026-05-05 17:09 -12.92880 36.90886 38011 ft 509 kts 206°
2026-05-05 17:10 -12.98208 36.88339 38010 ft 508 kts 206°
2026-05-05 17:10 -13.04567 36.85299 38012 ft 507 kts 206°
2026-05-05 17:11 -13.10994 36.82225 38014 ft 507 kts 206°
2026-05-05 17:11 -13.17391 36.79162 38018 ft 507 kts 206°
2026-05-05 17:12 -13.23783 36.76101 38021 ft 508 kts 206°
2026-05-05 17:12 -13.30187 36.73032 38020 ft 508 kts 206°
2026-05-05 17:13 -13.36573 36.69970 38024 ft 507 kts 206°
2026-05-05 17:13 -13.42955 36.66908 38022 ft 506 kts 206°
2026-05-05 17:14 -13.49340 36.63842 38021 ft 505 kts 206°
2026-05-05 17:14 -13.55667 36.60803 38025 ft 506 kts 206°
2026-05-05 17:15 -13.62054 36.57733 38030 ft 507 kts 206°
2026-05-05 17:15 -13.68454 36.54655 38033 ft 508 kts 206°
2026-05-05 17:16 -13.74864 36.51571 38025 ft 508 kts 206°
2026-05-05 17:16 -13.81255 36.48493 38027 ft 506 kts 206°
2026-05-05 17:17 -13.87621 36.45426 38021 ft 505 kts 207°
2026-05-05 17:17 -13.93985 36.42357 38020 ft 506 kts 207°
2026-05-05 17:18 -14.00364 36.39281 38024 ft 507 kts 207°
2026-05-05 17:18 -14.06764 36.36191 38023 ft 507 kts 207°
2026-05-05 17:19 -14.13163 36.33100 38026 ft 508 kts 207°
2026-05-05 17:19 -14.19566 36.30006 38029 ft 508 kts 207°
2026-05-05 17:20 -14.25950 36.26918 38028 ft 508 kts 207°
2026-05-05 17:20 -14.32352 36.23820 38030 ft 508 kts 207°
2026-05-05 17:21 -14.37911 36.21129 38033 ft 508 kts 207°
2026-05-05 17:22 -14.47385 36.16538 38033 ft 507 kts 207°
2026-05-05 17:22 -14.53781 36.13436 38036 ft 507 kts 207°
2026-05-05 17:23 -14.60166 36.10338 38037 ft 507 kts 207°
2026-05-05 17:23 -14.66568 36.07229 38036 ft 507 kts 207°
2026-05-05 17:24 -14.72915 36.04145 38044 ft 508 kts 207°
2026-05-05 17:24 -14.79327 36.01028 38045 ft 509 kts 207°
2026-05-05 17:25 -14.85743 35.97907 38043 ft 509 kts 207°
2026-05-05 17:25 -14.92146 35.94789 38050 ft 508 kts 207°
2026-05-05 17:26 -14.98542 35.91673 38047 ft 509 kts 207°
2026-05-05 17:26 -15.04920 35.88564 38051 ft 509 kts 207°
2026-05-05 17:27 -15.11302 35.85451 38048 ft 508 kts 207°
2026-05-05 17:27 -15.17695 35.82330 38049 ft 508 kts 207°
2026-05-05 17:28 -15.24105 35.79199 38050 ft 508 kts 208°
2026-05-05 17:28 -15.30449 35.76098 38054 ft 508 kts 208°
2026-05-05 17:29 -15.36841 35.72972 38057 ft 508 kts 208°
2026-05-05 17:29 -15.43231 35.69844 38065 ft 508 kts 208°
2026-05-05 17:30 -15.49632 35.66709 38064 ft 509 kts 208°
2026-05-05 17:30 -15.56035 35.63571 38070 ft 508 kts 208°
2026-05-05 17:31 -15.62439 35.60429 38077 ft 509 kts 208°
2026-05-05 17:31 -15.68835 35.57291 38077 ft 509 kts 208°
2026-05-05 17:32 -15.75243 35.54143 38076 ft 510 kts 208°
2026-05-05 17:32 -15.81652 35.50993 38077 ft 510 kts 208°
2026-05-05 17:33 -15.88036 35.47853 38070 ft 510 kts 208°
2026-05-05 17:33 -15.94432 35.44705 38071 ft 510 kts 208°
2026-05-05 17:34 -16.00854 35.41542 38057 ft 510 kts 208°
2026-05-05 17:34 -16.07270 35.38380 38054 ft 510 kts 208°
2026-05-05 17:35 -16.13683 35.35217 38042 ft 510 kts 208°
2026-05-05 17:35 -16.20092 35.32053 38034 ft 510 kts 208°
2026-05-05 17:36 -16.26492 35.28892 38018 ft 510 kts 208°
2026-05-05 17:36 -16.32916 35.25716 37992 ft 510 kts 208°
2026-05-05 17:37 -16.39328 35.22544 37980 ft 510 kts 208°
2026-05-05 17:37 -16.45693 35.19394 37972 ft 510 kts 208°
2026-05-05 17:38 -16.52127 35.16206 37969 ft 510 kts 208°
2026-05-05 17:38 -16.58490 35.13051 37968 ft 510 kts 208°
2026-05-05 17:39 -16.64898 35.09872 37959 ft 509 kts 208°
2026-05-05 17:39 -16.71292 35.06698 37958 ft 510 kts 209°
2026-05-05 17:40 -16.77580 35.03573 37959 ft 510 kts 209°
2026-05-05 17:40 -16.84029 35.00366 37957 ft 509 kts 209°
2026-05-05 17:41 -16.90432 34.97181 37956 ft 509 kts 209°
2026-05-05 17:41 -16.96820 34.93999 37962 ft 509 kts 209°
2026-05-05 17:42 -17.03212 34.90814 37961 ft 509 kts 209°
2026-05-05 17:42 -17.09609 34.87623 37954 ft 509 kts 209°
2026-05-05 17:43 -17.15991 34.84437 37955 ft 509 kts 209°
2026-05-05 17:43 -17.22388 34.81242 37957 ft 509 kts 209°
2026-05-05 17:44 -17.28678 34.78097 37956 ft 509 kts 209°
2026-05-05 17:44 -17.35066 34.74902 37961 ft 508 kts 209°
2026-05-05 17:45 -17.41441 34.71710 37961 ft 508 kts 209°
2026-05-05 17:45 -17.47817 34.68515 37960 ft 508 kts 209°
2026-05-05 17:46 -17.54194 34.65317 37957 ft 508 kts 209°
2026-05-05 17:46 -17.60560 34.62123 37958 ft 508 kts 209°
2026-05-05 17:47 -17.66928 34.58924 37967 ft 508 kts 209°
2026-05-05 17:47 -17.73302 34.55721 37960 ft 508 kts 209°
2026-05-05 17:48 -17.79667 34.52519 37962 ft 508 kts 209°
2026-05-05 17:48 -17.86040 34.49310 37965 ft 508 kts 209°
2026-05-05 17:49 -17.92423 34.46094 37965 ft 508 kts 209°
2026-05-05 17:49 -17.98780 34.42889 37962 ft 508 kts 209°
2026-05-05 17:50 -18.05120 34.39690 37962 ft 508 kts 209°
2026-05-05 17:50 -18.11531 34.36452 37961 ft 508 kts 209°
2026-05-05 17:51 -18.17884 34.33240 37963 ft 508 kts 209°
2026-05-05 17:51 -18.24223 34.30034 37967 ft 508 kts 209°
2026-05-05 17:52 -18.30589 34.26810 37963 ft 508 kts 209°
2026-05-05 17:52 -18.36947 34.23589 37965 ft 508 kts 210°
2026-05-05 17:53 -18.43325 34.20355 37960 ft 508 kts 210°
2026-05-05 17:53 -18.49706 34.17117 37961 ft 507 kts 210°
2026-05-05 17:54 -18.56063 34.13886 37963 ft 508 kts 210°
2026-05-05 17:54 -18.62424 34.10653 37959 ft 509 kts 210°
2026-05-05 17:55 -18.68816 34.07401 37957 ft 509 kts 210°
2026-05-05 17:55 -18.75191 34.04154 37954 ft 509 kts 210°
2026-05-05 17:56 -18.81581 34.00898 37953 ft 510 kts 210°
2026-05-05 17:56 -18.87973 33.97637 37943 ft 510 kts 210°
2026-05-05 17:57 -18.94355 33.94379 37951 ft 510 kts 210°
2026-05-05 17:57 -19.00750 33.91111 37948 ft 510 kts 210°
2026-05-05 17:58 -19.07134 33.87847 37946 ft 509 kts 210°
2026-05-05 17:58 -19.13498 33.84589 37943 ft 509 kts 210°
2026-05-05 17:59 -19.19840 33.81340 37947 ft 509 kts 210°
2026-05-05 17:59 -19.26210 33.78074 37954 ft 509 kts 210°
2026-05-05 18:00 -19.32575 33.74807 37946 ft 509 kts 210°
2026-05-05 18:00 -19.38936 33.71540 37941 ft 508 kts 210°
2026-05-05 18:01 -19.45298 33.68270 37939 ft 508 kts 210°
2026-05-05 18:01 -19.50594 33.65545 37938 ft 508 kts 210°
2026-05-05 18:02 -19.56940 33.62278 37935 ft 507 kts 210°
2026-05-05 18:02 -19.63326 33.58986 37933 ft 507 kts 210°
2026-05-05 18:03 -19.69619 33.55741 37931 ft 507 kts 210°
2026-05-05 18:03 -19.75949 33.52472 37927 ft 506 kts 210°
2026-05-05 18:04 -19.82291 33.49196 37923 ft 506 kts 210°
2026-05-05 18:04 -19.88612 33.45927 37925 ft 506 kts 210°
2026-05-05 18:05 -19.94941 33.42650 37919 ft 505 kts 210°
2026-05-05 18:05 -20.01261 33.39376 37921 ft 505 kts 210°
2026-05-05 18:06 -20.07575 33.36101 37929 ft 505 kts 210°
2026-05-05 18:06 -20.13889 33.32824 37920 ft 505 kts 210°
2026-05-05 18:07 -20.20204 33.29543 37920 ft 505 kts 210°
2026-05-05 18:07 -20.26511 33.26264 37914 ft 505 kts 210°
2026-05-05 18:08 -20.32820 33.22981 37922 ft 505 kts 210°
2026-05-05 18:08 -20.39083 33.19718 37924 ft 505 kts 210°
2026-05-05 18:09 -20.45393 33.16428 37920 ft 505 kts 210°
2026-05-05 18:09 -20.51709 33.13131 37916 ft 506 kts 210°
2026-05-05 18:10 -20.58041 33.09824 37922 ft 506 kts 210°
2026-05-05 18:10 -20.64337 33.06532 37919 ft 506 kts 210°
2026-05-05 18:11 -20.70707 33.03198 37914 ft 506 kts 210°
2026-05-05 18:11 -20.76998 32.99903 37918 ft 506 kts 210°
2026-05-05 18:12 -20.83321 32.96588 37911 ft 506 kts 210°
2026-05-05 18:12 -20.89632 32.93276 37906 ft 506 kts 211°
2026-05-05 18:13 -20.95959 32.89952 37906 ft 506 kts 211°
2026-05-05 18:13 -21.02290 32.86623 37904 ft 506 kts 211°
2026-05-05 18:14 -21.08611 32.83296 37900 ft 507 kts 211°
2026-05-05 18:14 -21.14931 32.79967 37889 ft 507 kts 211°
2026-05-05 18:15 -21.21256 32.76631 37898 ft 507 kts 211°
2026-05-05 18:15 -21.27592 32.73287 37891 ft 507 kts 211°
2026-05-05 18:16 -21.33910 32.69949 37891 ft 507 kts 211°
2026-05-05 18:16 -21.40215 32.66615 37896 ft 507 kts 211°
2026-05-05 18:17 -21.46549 32.63262 37890 ft 506 kts 211°
2026-05-05 18:17 -21.52873 32.59911 37888 ft 507 kts 211°
2026-05-05 18:18 -21.59185 32.56563 37892 ft 507 kts 211°
2026-05-05 18:18 -21.65523 32.53198 37890 ft 507 kts 212°
2026-05-05 18:19 -21.71824 32.49850 37895 ft 506 kts 212°
2026-05-05 18:19 -21.78136 32.46491 37890 ft 506 kts 212°
2026-05-05 18:20 -21.84414 32.43149 37887 ft 506 kts 212°
2026-05-05 18:20 -21.90748 32.39773 37888 ft 505 kts 212°
2026-05-05 18:21 -21.97028 32.36422 37881 ft 505 kts 212°
2026-05-05 18:21 -22.03266 32.33091 37879 ft 505 kts 212°
2026-05-05 18:22 -22.09573 32.29719 37880 ft 505 kts 212°
2026-05-05 18:22 -22.15865 32.26352 37875 ft 505 kts 212°
2026-05-05 18:23 -22.22134 32.22994 37877 ft 505 kts 212°
2026-05-05 18:23 -22.28459 32.19602 38454 ft 505 kts 213°
2026-05-05 18:23 -22.31535 32.17955 39148 ft 502 kts 213°
2026-05-05 18:24 -22.34194 32.16526 39576 ft 502 kts 213°
2026-05-05 18:24 -22.36992 32.15019 39848 ft 507 kts 213°
2026-05-05 18:24 -22.40043 32.13375 39859 ft 512 kts 213°
2026-05-05 18:25 -22.46352 32.09997 39857 ft 504 kts 213°
2026-05-05 18:25 -22.52631 32.06606 39853 ft 501 kts 213°
2026-05-05 18:26 -22.58853 32.03257 39853 ft 502 kts 213°
2026-05-05 18:26 -22.65089 31.99892 39856 ft 502 kts 213°
2026-05-05 18:27 -22.71367 31.96503 39850 ft 503 kts 213°
2026-05-05 18:27 -22.77628 31.93119 39854 ft 503 kts 213°
2026-05-05 18:28 -22.87029 31.88031 39862 ft 503 kts 213°
2026-05-05 18:28 -22.93295 31.84635 39866 ft 504 kts 213°
2026-05-05 18:29 -22.99604 31.81212 39868 ft 505 kts 213°
2026-05-05 18:29 -23.05856 31.77818 39874 ft 505 kts 213°
2026-05-05 18:30 -23.12144 31.74399 39876 ft 506 kts 213°
2026-05-05 18:30 -23.18469 31.70958 39874 ft 505 kts 214°
2026-05-05 18:31 -23.24720 31.67551 39875 ft 506 kts 214°
2026-05-05 18:31 -23.31013 31.64120 39883 ft 506 kts 214°
2026-05-05 18:32 -23.37336 31.60668 39877 ft 506 kts 214°
2026-05-05 18:32 -23.43313 31.56873 39885 ft 493 kts 226°
2026-05-05 18:33 -23.47952 31.51599 39887 ft 474 kts 243°
2026-05-05 18:33 -23.51414 31.45536 39894 ft 470 kts 245°
2026-05-05 18:34 -23.54808 31.39456 39881 ft 470 kts 245°
2026-05-05 18:34 -23.58217 31.33347 39881 ft 470 kts 245°
2026-05-05 18:35 -23.61609 31.27260 39882 ft 471 kts 246°
2026-05-05 18:35 -23.65010 31.21147 39889 ft 471 kts 246°
2026-05-05 18:36 -23.68396 31.15056 39893 ft 471 kts 246°
2026-05-05 18:36 -23.71770 31.08978 39893 ft 471 kts 246°
2026-05-05 18:37 -23.75159 31.02865 39893 ft 470 kts 246°
2026-05-05 18:37 -23.78540 30.96759 39897 ft 470 kts 246°
2026-05-05 18:38 -23.81922 30.90647 39902 ft 470 kts 246°
2026-05-05 18:38 -23.85298 30.84533 39900 ft 469 kts 246°
2026-05-05 18:39 -23.88691 30.78386 39899 ft 470 kts 246°
2026-05-05 18:39 -23.92044 30.72300 39908 ft 470 kts 246°
2026-05-05 18:40 -23.95413 30.66179 39912 ft 470 kts 246°
2026-05-05 18:40 -23.98805 30.60009 39918 ft 469 kts 247°
2026-05-05 18:41 -24.02122 30.53967 39924 ft 468 kts 247°
2026-05-05 18:41 -24.05485 30.47834 39931 ft 468 kts 247°
2026-05-05 18:42 -24.08821 30.41743 39937 ft 468 kts 247°
2026-05-05 18:42 -24.12164 30.35629 39943 ft 468 kts 247°
2026-05-05 18:43 -24.15506 30.29512 39949 ft 468 kts 247°
2026-05-05 18:43 -24.18842 30.23397 39956 ft 467 kts 247°
2026-05-05 18:44 -24.22011 30.17583 39955 ft 466 kts 247°
2026-05-05 18:44 -24.25335 30.11474 39957 ft 466 kts 248°
2026-05-05 18:45 -24.28643 30.05390 39954 ft 465 kts 248°
2026-05-05 18:45 -24.31959 29.99283 39949 ft 465 kts 248°
2026-05-05 18:46 -24.35231 29.93247 39945 ft 464 kts 248°
2026-05-05 18:46 -24.38521 29.87169 39950 ft 465 kts 248°
2026-05-05 18:47 -24.41822 29.81084 39947 ft 466 kts 247°
2026-05-05 18:47 -24.45195 29.75011 39948 ft 465 kts 247°
2026-05-05 18:48 -24.48521 29.68936 39925 ft 465 kts 248°
2026-05-05 18:48 -24.51856 29.62892 39947 ft 466 kts 247°
2026-05-05 18:49 -24.55230 29.56763 39936 ft 464 kts 248°
2026-05-05 18:49 -24.58503 29.50816 39929 ft 455 kts 248°
2026-05-05 18:50 -24.61229 29.45900 39922 ft 451 kts 248°
2026-05-05 18:50 -24.64490 29.40001 39924 ft 454 kts 248°
2026-05-05 18:51 -24.67772 29.34064 39932 ft 454 kts 248°
2026-05-05 18:51 -24.71054 29.28117 39939 ft 455 kts 248°
2026-05-05 18:52 -24.74325 29.22183 39930 ft 454 kts 248°
2026-05-05 18:52 -24.77601 29.16232 39941 ft 454 kts 248°
2026-05-05 18:53 -24.79234 29.13264 39668 ft 453 kts 248°
2026-05-05 18:53 -24.80851 29.10325 39058 ft 447 kts 248°
2026-05-05 18:53 -24.82444 29.07437 38512 ft 436 kts 248°
2026-05-05 18:53 -24.83988 29.04623 37949 ft 429 kts 248°
2026-05-05 18:54 -24.85534 29.01772 37433 ft 446 kts 248°
2026-05-05 18:54 -24.87179 28.98757 36843 ft 455 kts 247°
2026-05-05 18:54 -24.88833 28.95768 36245 ft 460 kts 247°
2026-05-05 18:54 -24.90605 28.92825 35651 ft 472 kts 240°
2026-05-05 18:55 -24.92680 28.90202 35034 ft 487 kts 233°
2026-05-05 18:55 -24.95277 28.87710 34332 ft 504 kts 225°
2026-05-05 18:55 -24.98282 28.85588 33547 ft 522 kts 216°
2026-05-05 18:55 -25.01635 28.83945 32765 ft 537 kts 206°
2026-05-05 18:56 -25.05288 28.82861 31954 ft 552 kts 198°
2026-05-05 18:56 -25.09085 28.82068 31043 ft 558 kts 197°
2026-05-05 18:56 -25.12921 28.81264 30099 ft 564 kts 197°
2026-05-05 18:56 -25.16801 28.80447 29099 ft 568 kts 196°
2026-05-05 18:57 -25.20680 28.79632 28357 ft 568 kts 196°
2026-05-05 18:57 -25.24541 28.78822 27973 ft 559 kts 196°
2026-05-05 18:57 -25.28289 28.78035 27844 ft 547 kts 196°
2026-05-05 18:57 -25.32018 28.77247 27693 ft 536 kts 197°
2026-05-05 18:58 -25.35610 28.76485 27530 ft 526 kts 197°
2026-05-05 18:58 -25.39175 28.75731 27383 ft 518 kts 197°
2026-05-05 18:58 -25.42691 28.74990 27215 ft 510 kts 197°
2026-05-05 18:58 -25.46229 28.74416 26732 ft 516 kts 188°
2026-05-05 18:59 -25.49797 28.74497 26040 ft 526 kts 180°
2026-05-05 18:59 -25.53462 28.74793 25335 ft 531 kts 180°
2026-05-05 18:59 -25.57066 28.75067 24650 ft 535 kts 180°
2026-05-05 18:59 -25.60821 28.75342 23946 ft 538 kts 180°
2026-05-05 19:00 -25.64535 28.75624 23190 ft 541 kts 180°
2026-05-05 19:00 -25.68367 28.75924 22474 ft 541 kts 180°
2026-05-05 19:00 -25.72093 28.76211 21756 ft 540 kts 180°
2026-05-05 19:00 -25.75867 28.76498 21025 ft 517 kts 180°
2026-05-05 19:01 -25.79163 28.76755 20401 ft 492 kts 180°
2026-05-05 19:01 -25.82529 28.77013 19775 ft 468 kts 181°
2026-05-05 19:01 -25.85702 28.76989 19190 ft 440 kts 192°
2026-05-05 19:01 -25.88513 28.76393 18660 ft 414 kts 203°
2026-05-05 19:02 -25.91105 28.75305 18114 ft 390 kts 214°
2026-05-05 19:02 -25.93370 28.73851 17594 ft 366 kts 221°
2026-05-05 19:02 -25.95464 28.72351 17122 ft 352 kts 221°
2026-05-05 19:02 -25.97381 28.70808 16648 ft 327 kts 234°
2026-05-05 19:03 -25.98773 28.68942 16249 ft 302 kts 248°
2026-05-05 19:03 -25.99559 28.66967 15864 ft 272 kts 271°
2026-05-05 19:03 -25.99499 28.64940 15527 ft 246 kts 286°
2026-05-05 19:03 -25.99185 28.63263 15254 ft 233 kts 289°
2026-05-05 19:04 -25.98711 28.61627 15011 ft 221 kts 297°
2026-05-05 19:04 -25.98082 28.60064 14546 ft 222 kts 299°
2026-05-05 19:04 -25.97412 28.58517 13976 ft 224 kts 299°
2026-05-05 19:04 -25.96725 28.56968 13373 ft 225 kts 300°
2026-05-05 19:05 -25.96027 28.55412 12763 ft 227 kts 300°
2026-05-05 19:05 -25.95308 28.53832 12148 ft 226 kts 300°
2026-05-05 19:05 -25.94588 28.52277 11556 ft 226 kts 300°
2026-05-05 19:05 -25.93861 28.50732 11005 ft 225 kts 300°
2026-05-05 19:06 -25.93063 28.49304 10644 ft 216 kts 306°
2026-05-05 19:06 -25.92244 28.47986 10540 ft 200 kts 296°
2026-05-05 19:06 -25.92061 28.46393 10508 ft 220 kts 275°
2026-05-05 19:06 -25.92273 28.44711 10351 ft 227 kts 256°
2026-05-05 19:07 -25.92842 28.43085 10166 ft 223 kts 259°
2026-05-05 19:07 -25.93264 28.41577 10040 ft 216 kts 260°
2026-05-05 19:07 -25.93712 28.39969 9834 ft 210 kts 260°
2026-05-05 19:07 -25.94145 28.38463 9644 ft 200 kts 260°
2026-05-05 19:08 -25.94561 28.37024 9449 ft 192 kts 260°
2026-05-05 19:08 -25.94952 28.35660 9280 ft 184 kts 260°
2026-05-05 19:08 -25.95330 28.34349 9170 ft 174 kts 260°
2026-05-05 19:08 -25.95689 28.33099 9066 ft 164 kts 260°
2026-05-05 19:09 -25.96056 28.31942 8965 ft 157 kts 253°
2026-05-05 19:09 -25.96868 28.31103 8824 ft 178 kts 218°
2026-05-05 19:09 -25.98124 28.30518 8614 ft 205 kts 206°
2026-05-05 19:09 -25.99458 28.30086 8358 ft 203 kts 205°
2026-05-05 19:10 -26.00824 28.29656 8092 ft 204 kts 204°
2026-05-05 19:10 -26.02182 28.29237 7827 ft 200 kts 205°
2026-05-05 19:10 -26.03506 28.28824 7576 ft 198 kts 202°
2026-05-05 19:10 -26.04775 28.28443 7316 ft 177 kts 203°
2026-05-05 19:11 -26.05925 28.28093 7101 ft 167 kts 204°
2026-05-05 19:11 -26.07032 28.27735 6895 ft 164 kts 204°
2026-05-05 19:11 -26.08118 28.27398 6704 ft 164 kts 203°
2026-05-05 19:11 -26.09229 28.27053 6484 ft 163 kts 202°
2026-05-05 19:12 -26.10281 28.26731 6250 ft 156 kts 201°
2026-05-05 19:12 -26.11339 28.26418 6001 ft 156 kts 201°
2026-05-05 19:12 -26.12355 28.26087 5713 ft 150 kts 199°
2026-05-05 19:12 -26.13342 28.25792 5547 ft 148 kts 198°
2026-05-05 19:13 -26.14291 28.25485 5517 ft 129 kts 199°
2026-05-05 19:13 -26.14946 28.25286 5515 ft 78 kts 197°
2026-05-05 19:13 -26.15410 28.25138 5520 ft 62 kts 195°
2026-05-05 19:13 -26.15593 28.25066 5522 ft 1 kts 234°
2026-05-05 19:14 -26.15593 28.25065 5522 ft 0 kts 241°
2026-05-05 19:14 -26.15593 28.25063 5522 ft 0 kts 247°
2026-05-05 19:14 -26.15597 28.25051 5522 ft 3 kts 256°
2026-05-05 19:14 -26.15596 28.25021 5522 ft 6 kts 276°
2026-05-05 19:15 -26.15585 28.24962 5520 ft 1 kts 283°
2026-05-05 19:15 -26.15574 28.24925 5519 ft 7 kts 295°
2026-05-05 19:15 -26.15567 28.24915 5519 ft 0 kts 315°
2026-05-05 19:15 -26.15562 28.24912 5519 ft 1 kts 329°
2026-05-05 19:16 -26.15552 28.24908 5519 ft 3 kts 341°
2026-05-05 19:16 -26.15528 28.24903 5519 ft 3 kts
2026-05-05 19:16 -26.15477 28.24913 5520 ft 17 kts 11°
2026-05-05 19:16 -26.15370 28.24944 5520 ft 17 kts 15°
2026-05-05 19:17 -26.15235 28.24988 5520 ft 25 kts 16°
2026-05-05 19:17 -26.15032 28.25048 5519 ft 36 kts 13°
2026-05-05 19:17 -26.14766 28.25133 5517 ft 44 kts 16°
2026-05-05 19:17 -26.14493 28.25206 5516 ft 27 kts 351°
2026-05-05 19:18 -26.14350 28.25077 5530 ft 28 kts 315°
2026-05-05 19:18 -26.14200 28.24904 5537 ft 36 kts 315°
2026-05-05 19:18 -26.13997 28.24690 5537 ft 45 kts 313°
2026-05-05 19:18 -26.13755 28.24431 5549 ft 48 kts 319°
2026-05-05 19:19 -26.13516 28.24177 5550 ft 43 kts 316°
2026-05-05 19:19 -26.13437 28.24084 5553 ft 11 kts 314°
2026-05-05 19:19 -26.13385 28.24029 5556 ft 11 kts 316°
2026-05-05 19:19 -26.13326 28.23966 5552 ft 14 kts 316°
2026-05-05 19:20 -26.13246 28.23877 5552 ft 18 kts 313°
2026-05-05 19:20 -26.13156 28.23779 5549 ft 19 kts 314°
2026-05-05 19:20 -26.13086 28.23720 5552 ft 5 kts 350°
2026-05-05 19:20 -26.13075 28.23721 5553 ft 1 kts 10°
2026-05-05 19:21 -26.13064 28.23723 5552 ft 2 kts
2026-05-05 19:21 -26.13042 28.23726 5550 ft 4 kts
2026-05-05 19:21 -26.12997 28.23736 5553 ft 10 kts 16°
2026-05-05 19:21 -26.12900 28.23768 5550 ft 19 kts 10°
2026-05-05 19:22 -26.12839 28.23742 5554 ft 8 kts 305°
2026-05-05 19:22 -26.12826 28.23677 5553 ft 11 kts 275°
2026-05-05 19:22 -26.12822 28.23607 5552 ft 2 kts 263°
2026-05-05 19:22 -26.12825 28.23604 5553 ft 1 kts 236°
2026-05-05 19:23 -26.12834 28.23597 5554 ft 4 kts 218°
2026-05-05 19:23 -26.12870 28.23583 5553 ft 9 kts 192°
2026-05-05 19:23 -26.12901 28.23578 5555 ft 0 kts 186°
2026-05-05 19:23 -26.12908 28.23577 5555 ft 2 kts 186°
2026-05-05 19:24 -26.12921 28.23576 5554 ft 2 kts 186°
2026-05-05 19:24 -26.12923 28.23575 5554 ft 0 kts 186°